CZ-6A DEB, 61381

Orbit data source: Space-Track

CZ-6A DEB, 61381 is space debris in LEO originally from a launch on Tue, 06 Aug 2024 UTC launched from the Taiyaun Space Center, China (TSC). Debris objects in space refer to the collection of defunct objects orbiting the Earth. Examples of debris include non-operational satellites, rocket bodies, and fragments generated from explosions, collisions, or faulty payload assembly.

Loading next visibility...
Identifier
61381, 2024-140WW
Orbit
LEO
Country
Flag of CNCN / PRC
Related business
Manufacturer
SAST
Mission
Spacecraft
Bus & Motor
Unknown
Mass
Unknown
Launch date (UTC)
2024-08-06 (1 year ago)
Launch vehicle
Unknown
Launch site
Taiyaun Space Center, China (TSC)
Object type
Payload
Rocket body
Debris
Shape & HBR
Unknown shape, 0.1 m
Radar Cross Section
Small (<0.1 m²)

Expand to show TLE details & history
Last TLE update: 2 days ago

TLE from 2 days ago
0 CZ-6A DEB
1 61381U 24140WW  25311.98922481  .00003290  00000-0  15811-2 0  9997
2 61381  88.9775 298.9605 0063415 196.2321 163.6838 14.17612379 60694
Epoch: 2025-11-07T23:44Z
TLE epoch observation values (Epoch: 2025-11-07T23:44:29.023Z)
Latitude
-0.00004°
Longitude
-104.58571°
Altitude
880.411 km
Speed
7.389 km/s
True Right ascension
19h 55m 50s
True Declination
0° 00' 00"
Sunlit
Object was in daylight at epoch
Visualization orbit readout
Latitude
Unknown
Longitude
Unknown
Altitude
Unknown
Speed
Unknown
Apparent Right ascension
Unknown
Apparent Declination
Unknown
Sunlit
N/A
Visualization observer readout
Local Sidereal Time
19:44:22
Azimuth
Unknown
Elevation
Unknown
Doppler factor
Unknown
Orbital elements
Apogee altitude
876.106 km
Perigee altitude
784.681 km
Semi-major axis
7,208.53 km
Eccentricity
0.00634
Inclination
88.9775°
RAAN
298.9605°
Arg. of periapsis
196.2321°
True anomaly
163.88641°
Mean anomaly
163.6838°
Eccentric anomaly
163.78526°
Mean motion
3.54628 °/min
Orbital period
101.51 mins
BSTAR
0.0015811
Loading maneuver chart data...
Computing Atmospheric mass density...

Documentation

Showing up to 5 results
|